Terminal Aerodrome Forecast
Issued by NWS

Home | Current Version | Previous Version | Text Only | Print | Product List | Glossary On
Versions: 1 2 3 4 5 6 7 8 9 10 11 12 13 14 15 16 17 18 19 20 21
000
FTUS42 KILM 230520
TAFCRE
TAF
KCRE 230520Z 2306/2406 16004KT P6SM TSRA OVC035CB
     FM230900 20010KT P6SM OVC035
      TEMPO 2309/2313 2SM TSRA OVC013CB
     FM231500 23013KT 6SM -SHRA VCTS OVC035CB
     FM231600 23013KT 6SM -SHRA VCTS OVC040CB
     FM240100 25010KT P6SM SHRA OVC030 PROB30 2401/2404 4SM TS
      OVC015CB
     FM240400 25013KT 6SM SHRA OVC015 PROB30 2404/2406 4SM TS
      OVC004CB=

USA.gov is the U.S. government's official web portal to all federal, state and local government web resources and services.